Regional Weather Roundup
Issued by NWS

Home | Current Version | Previous Version | Graphics & Text | Print | Product List | Glossary On
Versions: 1 2 3 4 5 6 7 8 9 10 11 12 13 14 15 16 17 18 19 20 21 22 23 24 25 26 27 28 29 30 31 32 33 34 35 36 37 38 39 40 41 42 43 44 45 46 47 48 49 50
000
ASUS43 KMKX 241400
RWRWI

WISCONSIN REGIONAL WEATHER ROUNDUP
NATIONAL WEATHER SERVICE MILWAUKEE/SULLIVAN WI
900 AM CDT TUE APR 24 2018

NOTE: "FAIR" INDICATES FEW OR NO CLOUDS BELOW 12,000 FEET WITH NO
SIGNIFICANT WEATHER AND/OR OBSTRUCTIONS TO VISIBILITY.

WIZ001-002-006>008-014>016-023>028-241500-
NORTHWEST WISCONSIN

CITY           SKY/WX    TMP DP  RH WIND       PRES   REMARKS
SUPERIOR ARPT  FAIR      44  31  60 NE7       30.22R
ASHLAND        FAIR      45  33  63 NE13      30.21R
HAYWARD        FAIR      52  32  46 NE12      30.16S
SIREN          FAIR      50  31  49 NE6       30.16S
CUMBERLAND     FAIR      46  32  57 N8        30.13S
RICE LAKE      FAIR      44  36  71 N5        30.15S
CHETEK         FAIR      47  34  61 N3        30.13S
LADYSMITH      FAIR      52  35  51 N6        30.14F
EAU CLAIRE     NOT AVBL
MENOMONIE      FAIR      49  37  62 CALM      30.12F
NEW RICHMOND   FAIR      50  38  61 CALM      30.12F
OSCEOLA        FAIR      48  37  66 N5        30.16S
$$

WIZ003>005-009-010-017-018-241500-
NORTH CENTRAL WISCONSIN

CITY           SKY/WX    TMP DP  RH WIND       PRES   REMARKS
MANITOWISH WTR CLOUDY    44  31  58 N7        30.14R
ARBOR VITAE    FAIR      44  31  60 N6        30.13R
WOODRUFF       FAIR      44  31  60 N6        30.13R
RHINELANDER    FAIR      52  30  43 NE6       30.12S
EAGLE RIVER    FAIR      47  28  48 N5        30.11S
LAND O LAKES   FAIR      46  29  52 N6        30.14F
PHILLIPS       FAIR      49  32  52 N6        30.13R
TOMAHAWK       FAIR      44  30  57 CALM      30.13S
MEDFORD        FAIR      51  34  52 NW5       30.11F
MERRILL        FAIR      45  32  61 CALM      30.12S
$$

WIZ029-030-035-036-043>047-241500-
CENTRAL WISCONSIN

CITY           SKY/WX    TMP DP  RH WIND       PRES   REMARKS
WAUSAU         FAIR      50  31  48 NW5       30.09F
MOSINEE        MOSUNNY   50  32  50 CALM      30.12F
MARSHFIELD     FAIR      57  34  41 N8        30.10S
STEVENS POINT  FAIR      49  28  44 CALM      30.11F
WAUPACA        FAIR      54  32  42 NW3       30.10F
WAUTOMA        FAIR      57  31  37 VRB3      30.10F
WISC RAPIDS    FAIR      54  28  36 VRB3      30.12F
CAMP DOUGLAS   NOT AVBL
$$

WIZ011>013-019>022-031-037>040-048>050-241500-
NORTHEAST WISCONSIN

CITY           SKY/WX    TMP DP  RH WIND       PRES   REMARKS
ANTIGO         FAIR      46  32  58 CALM      30.11F
SHAWANO        FAIR      51  32  49 CALM      30.10F
OCONTO         FAIR      44  32  64 CALM      30.11S
STURGEON BAY   FAIR      51  28  41 CALM      30.11
GREEN BAY      FAIR      50  33  52 CALM      30.10F
MANITOWOC      FAIR      50  33  52 N8        30.10S HAZE
APPLETON       MOSUNNY   52  28  40 N3        30.09S
CLINTONVILLE   FAIR      47  30  51 CALM      30.10F
OSHKOSH        FAIR      54  35  48 N7        30.10S
$$

WIZ032>034-041-042-053>061-241500-
SOUTHWEST WISCONSIN

CITY           SKY/WX    TMP DP  RH WIND       PRES   REMARKS
LA CROSSE      FAIR      52  39  61 NW3       30.12F
SPARTA         FAIR      46  32  59 CALM      30.13S
VIROQUA        FAIR      56  35  44 N3        30.11F
BOSCOBEL       FAIR      50  36  58 CALM      30.12F
PRAIRIE DU CHI FAIR      46  35  65 CALM      30.12F
PLATTEVILLE    FAIR      55  36  48 CALM      30.12S
$$

WIZ056-057-062-063-064-067-068-241500-
SOUTH CENTRAL WISCONSIN

CITY           SKY/WX    TMP DP  RH WIND       PRES   REMARKS
REEDSBURG      FAIR      47  35  62 CALM      30.12S
BARABOO/DELLS  FAIR      48  33  55 CALM      30.12S
LONE ROCK      NOT AVBL
MINERAL POINT  FAIR      55  32  41 N3        30.11S
MADISON        FAIR      56  32  40 NE6       30.09F
MIDDLETON      FAIR      56  34  43 N5        30.10F
WATERTOWN      FAIR      52  32  47 N8        30.09S
MONROE         FAIR      55  28  35 N9        30.09F
JANESVILLE     MOSUNNY   57  27  30 N9        30.09S
$$

WIZ051-052-058>065-066-070>072-241500-
SOUTHEAST WISCONSIN

CITY           SKY/WX    TMP DP  RH WIND       PRES   REMARKS
MILWAUKEE      PTSUNNY   49  33  54 N5        30.09F
WAUKESHA       SUNNY     54  28  37 NE7       30.09F
MILWAUKEE/TIMM SUNNY     52  27  37 NE5       30.09S
RACINE         CLOUDY    47  33  58 N8        30.10S
BURLINGTON     FAIR      52  31  43 N3        30.08S
KENOSHA        PTSUNNY   50  35  56 N3        30.08S
FOND DU LAC    FAIR      52  35  52 N5        30.10F
SHEBOYGAN      FAIR      52  34  50 N9        30.08F
WEST BEND      FAIR      52  27  37 N6        30.08F
JUNEAU         FAIR      49  32  51 N6        30.11S
$$

LSZ147-162-241500-
LAKE SUPERIOR

STATION/POSITION TIME  TEMP    WIND        PRES    WAVE
                       AIR SEA DIR/SP/G            HT/PER
                 (UTC) (F)     (DEG/KT/KT) (MB)    (FT/S)
DEVILS ISLAND    1300   40      60/ 11/ 11 1023.8R
SAXON HARBOR     1340   37     300/  8/  8 1022.0R
$$

LMZ867-665-643>646-241500-
LAKE MICHIGAN

STATION/POSITION TIME  TEMP    WIND        PRES    WAVE
                       AIR SEA DIR/SP/G            HT/PER
                 (UTC) (F)     (DEG/KT/KT) (MB)    (FT/S)
NORTHPORT PIER   1340   44                 1019.6S
KEWAUNEE LAKESHO 1330   47      30/  5/  7 1018.8F
SHEBOYGAN LAKESH 1300   41     340/ 12/ 13 1019.4R
PORT WASHINGTON  1340   46      50/  2/  5 1019.6S
MILWAUKEE LAKESH 1330   44      40/  8/  8   N/A
KENOSHA   LAKESH 1300   42                 1019.0
$$

TC  - TEMPERATURE IN CELSIUS
VSB - VISIBILITY IN STATUTE MILES
WCI - WIND CHILL INDEX
HX  - HEAT INDEX





USA.gov is the U.S. government's official web portal to all federal, state and local government web resources and services.